EW4932 Weather Reports


Display with metric or nautical units.
time (UTC)temp
F
wind
direction
speed
MPH
gust
MPH
rain 1hr
in
rain 24hr
in
rain mn
in
humidity
%
barometer
mb
20260503180005 79 0 0.0 0.0 0.00 0.00 0.00 50 1010.5
20260503175005 78 0 0.0 0.0 0.00 0.00 0.00 53 1010.6
20260503174505 78 0 0.0 0.0 0.00 0.00 0.00 48 1010.6
20260503174005 78 0 0.0 0.0 0.00 0.00 0.00 51 1010.7
20260503173505 77 0 0.0 0.0 0.00 0.00 0.00 49 1010.7
20260503172505 76 0 0.0 0.0 0.00 0.00 0.00 51 1010.8
20260503172005 75 0 0.0 0.0 0.00 0.00 0.00 56 1010.8
20260503171505 75 0 0.0 0.0 0.00 0.00 0.00 57 1010.8
20260503171005 75 0 0.0 0.0 0.00 0.00 0.00 61 1010.9
20260503170505 74 0 0.0 0.0 0.00 0.00 0.00 58 1010.9
20260503150505 58 0 0.0 0.0 0.00 0.00 0.00 96 1011.4
20260503131005 50 0 0.0 0.0 0.00 0.00 0.00 92 1011.1
20260503110505 52 0 0.0 0.0 0.00 0.00 0.00 91 1011.3
20260503090505 54 0 0.0 0.0 0.00 0.00 0.00 90 1011.8
20260503081505 56 0 0.0 0.0 0.00 0.00 0.00 88 1011.7
20260503081005 56 0 0.0 0.0 0.00 0.00 0.00 88 1011.7
20260503080506 56 0 0.0 0.0 0.00 0.00 0.00 87 1011.8
20260503072505 57 0 0.0 0.0 0.00 0.00 0.00 85 1011.8
20260503072005 57 0 0.0 0.0 0.00 0.00 0.00 85 1011.8
20260503071505 57 0 0.0 0.0 0.00 0.00 0.00 85 1011.8
20260503071005 57 0 0.0 0.0 0.00 0.00 0.00 85 1011.8
20260503070504 58 0 0.0 0.0 0.00 0.00 0.00 84 1011.8
20260503055005 60 0 0.0 0.0 0.00 0.00 0.00 82 1012.0
20260503054505 60 0 0.0 0.0 0.00 0.00 0.00 81 1011.9
20260503054005 60 0 0.0 0.0 0.00 0.00 0.00 81 1011.9
20260503053005 61 0 0.0 0.0 0.00 0.00 0.00 80 1011.7
20260503052504 61 0 0.0 0.0 0.00 0.00 0.00 79 1011.6
20260503051505 61 305 0.0 1.0 0.00 0.00 0.00 80 1011.7
20260503051005 61 303 0.0 1.0 0.00 0.00 0.00 79 1011.7
20260503050505 61 303 0.0 2.0 0.00 0.00 0.00 79 1011.7
20260503050006 62 303 0.0 2.0 0.00 0.00 0.00 79 1011.7
20260503045505 62 0 0.0 0.0 0.00 0.00 0.00 79 1011.9
20260503045004 62 0 0.0 0.0 0.00 0.00 0.00 79 1012.0
20260503044505 62 0 0.0 0.0 0.00 0.00 0.00 79 1012.0
20260503044005 62 327 0.0 1.0 0.00 0.00 0.00 79 1011.8
20260503043505 62 336 0.0 4.0 0.00 0.00 0.00 78 1011.6
20260503043005 62 339 0.0 4.0 0.00 0.00 0.00 78 1011.5
20260503042505 62 330 0.0 4.0 0.00 0.00 0.00 78 1011.5
20260503042005 62 326 0.0 4.0 0.00 0.00 0.00 77 1011.4
20260503041505 62 321 0.0 3.0 0.00 0.00 0.00 77 1011.4
20260503041005 62 0 0.0 0.0 0.00 0.00 0.00 76 1011.5
20260503040505 63 302 0.0 1.0 0.00 0.00 0.00 75 1011.6
20260503040005 63 300 0.0 2.0 0.00 0.00 0.00 75 1011.6
20260503035505 63 300 0.0 2.0 0.00 0.00 0.00 75 1011.6
20260503034505 64 0 0.0 0.0 0.00 0.00 0.00 74 1011.7
20260503034005 64 0 0.0 0.0 0.00 0.00 0.00 74 1011.6
20260503033507 64 0 0.0 0.0 0.00 0.00 0.00 73 1011.5
20260503033005 64 0 0.0 0.0 0.00 0.00 0.00 73 1011.5
20260503032505 64 0 0.0 0.0 0.00 0.00 0.00 73 1011.4
20260503032005 64 0 0.0 0.0 0.00 0.00 0.00 73 1011.3
20260503031005 65 0 0.0 0.0 0.00 0.00 0.00 72 1011.2
20260503030505 65 49 0.0 1.0 0.00 0.00 0.00 72 1011.1
20260503025505 65 0 0.0 0.0 0.00 0.00 0.00 71 1011.1
20260503025005 65 0 0.0 0.0 0.00 0.00 0.00 70 1011.3
20260503024505 66 0 0.0 0.0 0.00 0.00 0.00 70 1011.3
20260503024005 66 0 0.0 0.0 0.00 0.00 0.00 70 1011.4
20260503023506 66 213 0.0 5.0 0.00 0.00 0.00 70 1011.5
20260503023005 66 219 1.0 5.0 0.00 0.00 0.00 69 1011.6
20260503022505 66 219 1.0 5.0 0.00 0.00 0.00 69 1011.6
20260503022005 66 217 1.0 7.0 0.00 0.00 0.00 69 1011.7
20260503021506 67 220 3.0 13.0 0.00 0.00 0.00 68 1011.7
20260503021005 67 216 3.0 13.0 0.00 0.00 0.00 68 1011.9
20260503020008 68 204 3.0 14.0 0.00 0.00 0.00 67 1011.8
20260503015505 68 193 1.0 6.0 0.00 0.00 0.00 66 1011.6
20260503015006 68 187 1.0 6.0 0.00 0.00 0.00 65 1011.2
20260503014505 68 216 0.0 2.0 0.00 0.00 0.00 65 1011.0
20260503014005 68 175 0.0 2.0 0.00 0.00 0.00 65 1010.8
20260503013505 68 225 0.0 4.0 0.00 0.00 0.00 65 1010.8
20260503013005 68 228 0.0 4.0 0.00 0.00 0.00 65 1010.8
20260503012505 68 238 1.0 4.0 0.00 0.00 0.00 65 1010.8
20260503012005 68 239 1.0 4.0 0.00 0.00 0.00 65 1010.8
20260503011505 69 242 0.0 4.0 0.00 0.00 0.00 64 1010.8
20260503011004 69 237 1.0 4.0 0.00 0.00 0.00 64 1010.8
20260503010505 69 237 1.0 4.0 0.00 0.00 0.00 65 1010.8
20260503010005 69 220 0.0 4.0 0.00 0.00 0.00 64 1010.7
20260503005505 69 227 1.0 4.0 0.00 0.00 0.00 65 1010.8
20260503005006 69 224 1.0 4.0 0.00 0.00 0.00 64 1010.7
20260503004505 69 217 1.0 4.0 0.00 0.00 0.00 64 1010.7
20260503004005 69 235 1.0 4.0 0.00 0.00 0.00 63 1010.7
20260503003505 69 227 1.0 6.0 0.00 0.00 0.00 64 1010.7
20260503003005 69 222 1.0 6.0 0.00 0.00 0.00 63 1010.6
20260503002505 69 220 2.0 6.0 0.00 0.00 0.00 64 1010.7
20260503002005 69 224 2.0 6.0 0.00 0.00 0.00 62 1010.6
20260503001505 69 219 1.0 6.0 0.00 0.00 0.00 62 1010.6
20260503001006 69 208 1.0 7.0 0.00 0.00 0.00 63 1010.6
20260503000506 69 217 2.0 7.0 0.00 0.00 0.00 63 1010.7
20260503000005 70 228 1.0 7.0 0.00 0.00 0.00 62 1010.8
20260502235505 69 218 1.0 7.0 0.00 0.00 0.00 63 1010.8
20260502234505 70 221 2.0 6.0 0.00 0.00 0.00 61 1010.9
20260502234005 70 226 3.0 6.0 0.00 0.00 0.00 61 1010.9
20260502233506 70 224 2.0 6.0 0.00 0.00 0.00 61 1011.1
20260502233006 70 215 1.0 5.0 0.00 0.00 0.00 62 1011.1
20260502232505 70 216 1.0 5.0 0.00 0.00 0.00 60 1011.2
20260502232005 70 224 1.0 5.0 0.00 0.00 0.00 62 1011.2
20260502231505 70 230 1.0 6.0 0.00 0.00 0.00 61 1011.3
20260502231005 70 231 1.0 6.0 0.00 0.00 0.00 61 1011.3
20260502230505 70 0 0.0 0.0 0.00 0.00 0.00 61 1011.4
20260502230005 70 0 0.0 0.0 0.00 0.00 0.00 59 1011.4
20260502225505 70 228 0.0 3.0 0.00 0.00 0.00 59 1011.5
20260502225005 71 228 0.0 3.0 0.00 0.00 0.00 57 1011.6
20260502224506 71 230 1.0 5.0 0.00 0.00 0.00 60 1011.7
20260502223505 70 211 1.0 6.0 0.00 0.00 0.00 57 1011.8
20260502223005 70 160 1.0 5.0 0.00 0.00 0.00 59 1011.9
20260502222505 69 132 0.0 3.0 0.00 0.00 0.00 59 1012.0
20260502222005 70 0 0.0 0.0 0.00 0.00 0.00 58 1012.1
20260502221504 70 13 0.0 1.0 0.00 0.00 0.00 64 1012.2
20260502221005 70 13 0.0 1.0 0.00 0.00 0.00 66 1012.2
20260502220504 69 82 0.0 4.0 0.00 0.00 0.00 60 1012.2
20260502220005 69 145 1.0 5.0 0.00 0.00 0.00 65 1012.3
20260502215505 68 186 0.0 5.0 0.00 0.00 0.00 61 1012.4
20260502215005 68 230 0.0 3.0 0.00 0.00 0.00 61 1012.5
20260502214505 67 250 0.0 4.0 0.00 0.00 0.00 64 1012.6
20260502214005 67 251 1.0 4.0 0.00 0.00 0.00 65 1012.7
20260502213505 68 252 1.0 4.0 0.00 0.00 0.00 61 1012.8
20260502213005 67 322 0.0 1.0 0.00 0.00 0.00 68 1012.8
20260502212505 68 10 0.0 1.0 0.00 0.00 0.00 67 1012.9
20260502212005 68 2 1.0 5.0 0.00 0.00 0.00 65 1013.0
20260502211005 66 81 1.0 4.0 0.00 0.00 0.00 68 1013.2
20260502205505 64 242 1.0 4.0 0.00 0.00 0.00 74 1013.3
20260502205005 64 0 0.0 0.0 0.00 0.00 0.00 66 1013.4
20260502204505 64 83 1.0 4.0 0.00 0.00 0.00 70 1013.5
20260502204005 64 48 1.0 6.0 0.00 0.00 0.00 69 1013.7
20260502203505 64 324 1.0 6.0 0.00 0.00 0.00 67 1013.8
20260502203005 64 335 1.0 5.0 0.00 0.00 0.00 71 1013.9
20260502202505 64 332 1.0 7.0 0.00 0.00 0.00 70 1013.9
20260502201505 63 243 1.0 4.0 0.00 0.00 0.00 69 1014.0
20260502201005 64 355 1.0 5.0 0.00 0.00 0.00 74 1014.1
20260502200505 64 319 1.0 5.0 0.00 0.00 0.00 79 1014.2
20260502200005 63 304 2.0 9.0 0.00 0.00 0.00 74 1014.3
20260502194505 60 281 1.0 11.0 0.00 0.00 0.00 76 1014.3
20260502193005 59 311 1.0 6.0 0.00 0.00 0.00 79 1014.4
20260502192005 58 286 0.0 2.0 0.00 0.00 0.00 81 1014.5
20260502191505 57 222 1.0 6.0 0.00 0.00 0.00 80 1014.8
20260502191005 57 218 1.0 6.0 0.00 0.00 0.00 80 1014.9
20260502190505 57 205 1.0 5.0 0.00 0.00 0.00 80 1015.1
20260502190005 58 229 1.0 5.0 0.00 0.00 0.00 78 1015.2
20260502185005 58 299 2.0 7.0 0.00 0.00 0.00 78 1015.2
20260502184504 58 303 1.0 4.0 0.00 0.00 0.00 80 1015.2
20260502183505 56 296 1.0 4.0 0.00 0.00 0.00 82 1015.0
20260502183005 56 314 1.0 6.0 0.00 0.00 0.00 79 1015.0
20260502182005 56 345 1.0 4.0 0.00 0.00 0.00 80 1015.0
20260502181005 56 11 0.0 3.0 0.00 0.00 0.00 79 1015.1